Weather History for Hazen, ND

Change the Weather History Date:

Tuesday, June 25, 2013

  Actual Average (KN60) Record (KN60)
Temperature  
Mean Temperature 71 °F -  
Max Temperature 82 °F 74 °F 88 °F (1998)
Min Temperature 60 °F 50 °F 35 °F (2004)
Cooling Degree Days 6    
Growing Degree Days 21 (Base 50)    
Moisture  
Dew Point 64 °F    
Average Humidity 76    
Maximum Humidity 100    
Minimum Humidity 57    
Precipitation  
Precipitation 0.00 in - - ()
Sea Level Pressure  
Sea Level Pressure 29.65 in    
Wind  
Wind Speed 9 mph (South)    
Max Wind Speed 17 mph    
Max Gust Speed 23 mph    
Visibility 10 miles    
Events Thunderstorm    
Averages and records for this station are not official NWS values.
T = Trace of Precipitation, MM = Missing Value Source: NWS Daily Summary

Daily Weather History Graph

Daily Weather History Graph

Search for Another Location

Airport:

Trip Planner

Search our weather history database for the weather conditions in past years. The results will help you decide how hot, cold, wet, or windy it might be!

Date:

Astronomy

Jun. 25, 2013 Rise Set
Actual Time 5:51 AM CDT 9:46 PM CDT
Civil Twilight 5:10 AM CDT 10:26 PM CDT
Nautical Twilight 4:15 AM CDT 11:22 PM CDT
Astronomical Twilight 2:50 AM CDT 12:47 AM CDT
Moon 11:18 PM CDT (6/25) 8:45 AM CDT (6/25)
Length of Visible Light 17h 16m
Length of Day
15h 55m
Waning Gibbous, 92% of the Moon is Illuminated
Jun 25
Waning Gibbous
Jun 29
Last Quarter
Jul 8
New
Jul 15
First Quarter
Jul 22
Full

Hourly Weather History & Observations

Time (CDT) Temp. Heat Index Dew Point Humidity Pressure Visibility Wind Dir Wind Speed Gust Speed Precip Events Conditions
12:15 AM 71.6 °F - 62.6 °F 73% 29.67 in 10.0 mi SSE 15.0 mph 18.4 mph N/A   Scattered Clouds
12:35 AM 71.6 °F - 62.6 °F 73% 29.67 in 10.0 mi SSE 15.0 mph 20.7 mph N/A   Mostly Cloudy
12:55 AM 71.6 °F - 60.8 °F 69% 29.66 in 10.0 mi SE 16.1 mph 21.9 mph N/A   Overcast
1:15 AM 68.0 °F - 60.8 °F 78% 29.66 in 10.0 mi SE 11.5 mph 19.6 mph N/A   Scattered Clouds
1:35 AM 68.0 °F - 60.8 °F 78% 29.66 in 10.0 mi East 5.8 mph - N/A   Clear
1:55 AM 66.2 °F - 60.8 °F 83% 29.65 in 10.0 mi ESE 4.6 mph - N/A   Partly Cloudy
2:15 AM 66.2 °F - 60.8 °F 83% 29.65 in 10.0 mi East 4.6 mph - N/A   Partly Cloudy
2:35 AM 66.2 °F - 60.8 °F 83% 29.65 in 10.0 mi NE 5.8 mph - N/A   Clear
2:55 AM 66.2 °F - 60.8 °F 83% 29.65 in 10.0 mi East 8.1 mph - N/A   Clear
3:15 AM 66.2 °F - 62.6 °F 88% 29.65 in 10.0 mi East 6.9 mph - N/A   Clear
3:35 AM 64.4 °F - 62.6 °F 94% 29.65 in 10.0 mi NE 6.9 mph - N/A   Clear
3:55 AM 64.4 °F - 60.8 °F 88% 29.64 in 10.0 mi East 6.9 mph - N/A   Clear
4:15 AM 62.6 °F - 60.8 °F 94% 29.65 in 10.0 mi ENE 4.6 mph - N/A   Scattered Clouds
4:35 AM 62.6 °F - 60.8 °F 94% 29.65 in 10.0 mi ENE 4.6 mph - N/A   Mostly Cloudy
4:55 AM 62.6 °F - 60.8 °F 94% 29.65 in 10.0 mi ENE 5.8 mph - N/A   Partly Cloudy
5:15 AM 62.6 °F - 60.8 °F 94% 29.64 in 10.0 mi East 5.8 mph - N/A   Clear
5:35 AM 60.8 °F - 59.0 °F 94% 29.64 in 9.0 mi ENE 5.8 mph - N/A   Clear
5:55 AM 62.6 °F - 60.8 °F 94% 29.64 in 8.0 mi NE 5.8 mph - N/A   Clear
6:15 AM 62.6 °F - 62.6 °F 100% 29.64 in 5.0 mi East 4.6 mph - N/A   Mostly Cloudy
6:35 AM 66.2 °F - 64.4 °F 94% 29.63 in 4.0 mi ESE 8.1 mph - N/A   Overcast
6:55 AM 66.2 °F - 64.4 °F 94% 29.64 in 3.0 mi SE 8.1 mph - N/A   Overcast
7:15 AM 66.2 °F - 66.2 °F 100% 29.63 in 5.0 mi SE 6.9 mph - N/A   Overcast
7:35 AM 68.0 °F - 66.2 °F 94% 29.63 in 7.0 mi ESE 3.5 mph - N/A   Overcast
7:55 AM 68.0 °F - 66.2 °F 94% 29.63 in 9.0 mi SE 6.9 mph - N/A   Overcast
8:15 AM 69.8 °F - 66.2 °F 88% 29.63 in 10.0 mi SE 8.1 mph - N/A   Overcast
8:35 AM 69.8 °F - 66.2 °F 88% 29.63 in 10.0 mi SSE 6.9 mph - N/A   Overcast
8:55 AM 71.6 °F - 66.2 °F 83% 29.65 in 10.0 mi SSW 8.1 mph - N/A   Overcast
9:15 AM 69.8 °F - 66.2 °F 88% 29.65 in 10.0 mi South 6.9 mph - N/A   Overcast
9:35 AM 71.6 °F - 64.4 °F 78% 29.66 in 10.0 mi SSW 4.6 mph - N/A   Overcast
9:55 AM 73.4 °F - 66.2 °F 78% 29.65 in 10.0 mi ESE 5.8 mph - N/A   Mostly Cloudy
10:15 AM 73.4 °F - 66.2 °F 78% 29.63 in 10.0 mi ESE 6.9 mph - N/A   Mostly Cloudy
10:35 AM 75.2 °F - 68.0 °F 78% 29.62 in 10.0 mi East 10.4 mph - N/A   Scattered Clouds
10:55 AM 75.2 °F - 68.0 °F 78% 29.61 in 10.0 mi ESE 10.4 mph 16.1 mph N/A   Partly Cloudy
11:15 AM 75.2 °F - 68.0 °F 78% 29.62 in 10.0 mi SE 10.4 mph 16.1 mph N/A   Clear
11:35 AM 77.0 °F - 68.0 °F 74% 29.62 in 10.0 mi SE 8.1 mph - N/A   Clear
11:55 AM 77.0 °F - 68.0 °F 74% 29.62 in 10.0 mi SSE 6.9 mph - N/A   Partly Cloudy
12:15 PM 78.8 °F - 68.0 °F 69% 29.62 in 10.0 mi SSE 5.8 mph - N/A   Clear
12:35 PM 80.6 °F 82.7 °F 66.2 °F 61% 29.62 in 10.0 mi South 10.4 mph 16.1 mph N/A   Clear
12:55 PM 78.8 °F - 66.2 °F 65% 29.62 in 10.0 mi South 8.1 mph - N/A   Clear
1:15 PM 78.8 °F - 66.2 °F 65% 29.63 in 10.0 mi SSW 5.8 mph - N/A   Clear
1:35 PM 80.6 °F 83.2 °F 68.0 °F 65% 29.63 in 10.0 mi South 8.1 mph - N/A   Mostly Cloudy
1:55 PM 80.6 °F 83.2 °F 68.0 °F 65% 29.63 in 10.0 mi SSW 6.9 mph - N/A   Scattered Clouds
2:15 PM 80.6 °F 83.2 °F 68.0 °F 65% 29.63 in 10.0 mi SSW 9.2 mph - N/A   Mostly Cloudy
2:35 PM 82.4 °F 84.6 °F 66.2 °F 58% 29.64 in 10.0 mi South 10.4 mph - N/A   Scattered Clouds
2:55 PM 80.6 °F 83.2 °F 68.0 °F 65% 29.63 in 10.0 mi SSW 6.9 mph - N/A   Clear
3:15 PM 80.6 °F 83.2 °F 68.0 °F 65% 29.64 in 10.0 mi SSE 3.5 mph - N/A   Clear
3:35 PM 82.4 °F 85.4 °F 68.0 °F 62% 29.64 in 10.0 mi SSW 8.1 mph - N/A   Clear
3:55 PM 82.4 °F 85.4 °F 68.0 °F 62% 29.64 in 10.0 mi WSW 8.1 mph - N/A   Scattered Clouds
4:15 PM 82.4 °F 86.3 °F 69.8 °F 66% 29.64 in 10.0 mi WSW 10.4 mph - N/A Thunderstorm Thunderstorm
4:35 PM 82.4 °F 85.4 °F 68.0 °F 62% 29.63 in 10.0 mi WSW 11.5 mph - N/A Thunderstorm Thunderstorm
4:55 PM 82.4 °F 84.6 °F 66.2 °F 58% 29.62 in 10.0 mi West 16.1 mph 19.6 mph N/A Thunderstorm Clear
5:15 PM 80.6 °F 82.7 °F 66.2 °F 61% 29.63 in 10.0 mi West 13.8 mph 23.0 mph N/A Thunderstorm Clear
5:35 PM 82.4 °F 84.6 °F 66.2 °F 58% 29.64 in 10.0 mi West 17.3 mph 21.9 mph N/A Thunderstorm Partly Cloudy
5:55 PM 78.8 °F - 64.4 °F 61% 29.63 in 10.0 mi WNW 9.2 mph 16.1 mph N/A Thunderstorm Mostly Cloudy
6:15 PM 78.8 °F - 66.2 °F 65% 29.64 in 10.0 mi WNW 16.1 mph 20.7 mph N/A   Overcast
6:35 PM 77.0 °F - 66.2 °F 69% 29.66 in 10.0 mi WNW 16.1 mph 20.7 mph N/A Thunderstorm Overcast
6:55 PM 77.0 °F - 66.2 °F 69% 29.67 in 10.0 mi WNW 10.4 mph 17.3 mph N/A Thunderstorm Overcast
7:15 PM 75.2 °F - 64.4 °F 69% 29.68 in 10.0 mi NW 15.0 mph 23.0 mph N/A   Overcast
7:35 PM 75.2 °F - 64.4 °F 69% 29.69 in 10.0 mi NW 9.2 mph - N/A   Mostly Cloudy
7:55 PM 75.2 °F - 64.4 °F 69% 29.69 in 10.0 mi WNW 9.2 mph - N/A   Partly Cloudy
8:15 PM 77.0 °F - 60.8 °F 57% 29.69 in 10.0 mi WNW 10.4 mph - N/A   Clear
8:35 PM 75.2 °F - 60.8 °F 61% 29.68 in 10.0 mi NW 10.4 mph - N/A   Clear
8:55 PM 73.4 °F - 62.6 °F 69% 29.69 in 10.0 mi NW 8.1 mph - N/A   Clear
9:15 PM 73.4 °F - 62.6 °F 69% 29.70 in 10.0 mi NW 5.8 mph - N/A   Clear
9:35 PM 71.6 °F - 62.6 °F 73% 29.70 in 10.0 mi WNW 5.8 mph - N/A   Scattered Clouds
9:55 PM 69.8 °F - 60.8 °F 73% 29.71 in 10.0 mi NW 4.6 mph - N/A   Partly Cloudy
10:15 PM 68.0 °F - 60.8 °F 78% 29.71 in 10.0 mi WNW 5.8 mph - N/A   Clear
10:35 PM 66.2 °F - 60.8 °F 83% 29.72 in 10.0 mi West 5.8 mph - N/A   Clear
10:55 PM 66.2 °F - 59.0 °F 78% 29.73 in 10.0 mi WNW 8.1 mph - N/A   Clear
11:15 PM 66.2 °F - 57.2 °F 73% 29.73 in 10.0 mi West 9.2 mph - N/A   Partly Cloudy
11:35 PM 64.4 °F - 57.2 °F 77% 29.72 in 10.0 mi SW 5.8 mph - N/A   Clear
11:55 PM 62.6 °F - 57.2 °F 82% 29.72 in 10.0 mi WSW 9.2 mph - N/A   Clear